Regional Weather Roundup
Issued by NWS Goodland, KS

Home | Current Version | Previous Version | Text Only | Print | Product List | Glossary Off
Versions: 1 2 3 4 5 6 7 8 9 10 11 12 13 14 15 16 17 18 19 20 21 22 23 24 25 26 27 28 29 30 31 32 33 34 35 36 37 38 39 40 41 42 43 44 45 46 47 48 49 50

000
ASUS43 KGLD 180408
RWRGLD

GOODLAND FORECAST AREA HOURLY WEATHER ROUNDUP
NATIONAL WEATHER SERVICE GOODLAND KS
1000 PM MDT THU AUG 17 2017

...OFFICIAL OBSERVATIONS...

CITY           SKY/WX    TMP DP  RH WIND       PRES   REMARKS
GOODLAND KS    CLEAR     67  60  78 SE10      30.04R
HILL CITY KS   TSTM      67  60  78 SW10      30.04S
IMPERIAL NEB   CLEAR     62  54  74 S7        29.98S
MCCOOK NEB     CLOUDY    70  54  56 SW12      29.93R
AKRON CO       CLEAR     67  46  47 SW8       30.08R
BURLINGTON CO  CLEAR     61  52  72 E3        30.07R
LIMON CO       CLEAR     54  52  93 NW3       30.16R
$$

...UNOFFICIAL OBSERVATIONS...

CITY           SKY/WX    TMP DP  RH WIND       PRES   REMARKS
LENORA KS        N/A     64  32  30 CALM        N/A
NORTON KS      LGT RAIN  68  54  60 SE15      29.96
SHARON SPRINGS   N/A     64  61  89 SE8         N/A
TRENTON NEB      N/A     63  32  31 CALM        N/A
KIT CARSON CO    N/A     64  51  64 CALM        N/A
YUMA CO        FAIR      59  43  55 SW3       30.04S
$$




USA.gov is the U.S. government's official web portal to all federal, state and local government web resources and services.